Home   Weather   Olde Washington Valley   Past weeks
Flag for USA

Past Weather in Olde Washington Valley, Maryland, USA — Yesterday and Last 2 Weeks

Now
61 °F

Overcast.


Feels Like: 61 °F
Forecast: 64 / 50 °F
Wind: 5 mph from North

Location: Reagan National Airport

Current Time: Oct 22, 2019 at 8:29:42 pm

Latest Report: Oct 22, 2019 at 7:52 pm


Visibility: 10 mi

Pressure: 29.83 "Hg

Humidity: 93%

Dew Point: 59 °F

Location of Olde Washington ValleyLocation

Past Weather in Olde Washington Valley — Graph

°F

Olde Washington Valley Temperature Yesterday

Maximum temperature yesterday: 70 °F (at 2:52 pm)
Minimum temperature yesterday: 55 °F (at 3:52 am)
Average temperature yesterday: 60 °F

High & Low Weather Summary for the Past Weeks

 TemperatureHumidityPressure
High79 °F (Oct 7, 6:52 pm)97% (Oct 20, 10:52 am)30.27 "Hg (Oct 20, 10:52 am)
Low44 °F (Oct 19, 6:52 am)27% (Oct 14, 2:52 pm)29.51 "Hg (Oct 16, 4:52 pm)
Average61 °F67%30.01 "Hg
* Reported Oct 7 6:52 pm — Oct 22 6:52 pm, Olde Washington Valley. Weather by CustomWeather, © 2019

Note: Actual official high and low records may vary slightly from our data, if they occured in-between our weather recording intervals... More about our weather records

Advertising

Olde Washington Valley Weather History for the Previous 24 Hours

Scroll right to see more
 ConditionsComfort  
Time TempWeatherWind HumidityBarometerVisibility
6:52 pm
Tue, Oct 22
61 °FMostly cloudy.5 mph93%29.80 "Hg10 mi
5:52 pm61 °FLight rain. Fog.8 mph93%29.83 "Hg3 mi
5:12 pm61 °FLight rain. Fog.14 mph93%29.84 "Hg5 mi
4:44 pm62 °FRain. Fog.13 mph96%29.84 "Hg2 mi
4:27 pm62 °FLight rain. Fog.No wind96%29.81 "Hg2 mi
4:23 pm62 °FRain. Fog.3 mph96%29.80 "Hg2 mi
4:04 pm62 °FHeavy rain. Fog.No wind96%29.81 "Hg1 mi
3:44 pm62 °FLight rain. Mostly cloudy.No wind96%29.81 "Hg9 mi
3:35 pm62 °FLight rain. Fog.3 mph93%29.81 "Hg3 mi
2:59 pm62 °FLight rain. Fog.7 mph93%29.81 "Hg3 mi
2:25 pm62 °FLight rain. Overcast.14 mph90%29.83 "Hg9 mi
1:52 pm63 °FOvercast.14 mph84%29.84 "Hg10 mi
12:52 pm63 °FOvercast.13 mph81%29.89 "Hg10 mi
12:20 pm61 °FOvercast.10 mph87%29.92 "Hg10 mi
11:52 am61 °FLow clouds.10 mph87%29.93 "Hg10 mi
11:21 am60 °FLow clouds.10 mph90%29.95 "Hg10 mi
10:52 am60 °FLow clouds.10 mph90%29.96 "Hg10 mi
9:52 am59 °FLow clouds.10 mph93%29.97 "Hg10 mi
8:52 am59 °FLow clouds.10 mph93%30.01 "Hg9 mi
8:02 am59 °FLow clouds.10 mph93%30.01 "Hg10 mi
7:02 am59 °FDrizzle. Fog.8 mph93%30.00 "Hg4 mi
6:52 am59 °FDrizzle. Fog.8 mph93%30.00 "Hg4 mi
5:52 am59 °FLow clouds.7 mph90%30.02 "Hg10 mi
5:20 am59 °FLow clouds.5 mph90%30.02 "Hg10 mi
4:52 am59 °FOvercast.7 mph90%30.01 "Hg10 mi
3:52 am59 °FOvercast.8 mph87%30.03 "Hg10 mi
2:52 am59 °FMostly cloudy.8 mph87%30.06 "Hg10 mi
1:52 am59 °FOvercast.6 mph87%30.08 "Hg10 mi
12:52 am59 °FOvercast.6 mph87%30.07 "Hg10 mi
11:52 pm
Mon, Oct 21
60 °FMostly cloudy.9 mph83%30.08 "Hg10 mi
10:52 pm60 °FOvercast.7 mph80%30.10 "Hg10 mi
10:29 pm60 °FOvercast.5 mph80%30.10 "Hg10 mi
9:52 pm60 °FPassing clouds.8 mph80%30.09 "Hg10 mi
8:52 pm61 °FPassing clouds.9 mph78%30.07 "Hg10 mi
Weather by CustomWeather, © 2019

See weather overview